RYR83SL LIEO-LIPQ

Flight info

Callsign RYR83SL
Flight time 1h 3m
Altitude 34000
Route BATOX DCT MAMAR DCT AMTEL DCT CHI
Aircraft B738/M-SDE2E3FGHIRWXY/LB1

Departure

Time 2026-04-14 14:08
Airport Olbia Costa Smeralda Airport (LIEO)

Arrival

Time 2026-04-14 15:11
Airport Trieste Airport (LIPQ)
Time Latitude Longitude Altitude Speed Heading
2026-04-14 13:54 40.90080 9.51330 44 ft 0 kts 25°
2026-04-14 14:04 40.90083 9.51333 44 ft 1 kts 55°
2026-04-14 14:04 40.90077 9.51349 43 ft 3 kts 155°
2026-04-14 14:04 40.90046 9.51353 42 ft 3 kts 135°
2026-04-14 14:04 40.90052 9.51394 42 ft 8 kts 52°
2026-04-14 14:05 40.90051 9.51489 40 ft 15 kts 139°
2026-04-14 14:05 40.89935 9.51489 38 ft 19 kts 220°
2026-04-14 14:05 40.89853 9.51348 39 ft 19 kts 236°
2026-04-14 14:05 40.89780 9.51205 40 ft 16 kts 237°
2026-04-14 14:06 40.89711 9.51109 40 ft 13 kts 189°
2026-04-14 14:06 40.89638 9.51171 38 ft 13 kts 108°
2026-04-14 14:06 40.89628 9.51302 35 ft 12 kts 72°
2026-04-14 14:06 40.89640 9.51331 35 ft 0 kts 54°
2026-04-14 14:07 40.89655 9.51359 35 ft 24 kts 54°
2026-04-14 14:07 40.89917 9.51858 31 ft 104 kts 55°
2026-04-14 14:07 40.90449 9.52881 112 ft 155 kts 55°
2026-04-14 14:08 40.91066 9.54079 741 ft 162 kts 56°
2026-04-14 14:08 40.91701 9.55318 1502 ft 165 kts 54°
2026-04-14 14:08 40.92384 9.56607 2015 ft 180 kts 53°
2026-04-14 14:08 40.93156 9.58041 2461 ft 198 kts 53°
2026-04-14 14:09 40.94008 9.59619 2842 ft 222 kts 53°
2026-04-14 14:09 40.94921 9.61322 3606 ft 229 kts 53°
2026-04-14 14:09 40.95850 9.63071 4454 ft 233 kts 53°
2026-04-14 14:09 40.96782 9.64825 5269 ft 236 kts 52°
2026-04-14 14:10 40.97741 9.66630 6086 ft 240 kts 52°
2026-04-14 14:10 40.98704 9.68471 6878 ft 244 kts 53°
2026-04-14 14:10 40.99668 9.70442 7312 ft 264 kts 54°
2026-04-14 14:10 41.00677 9.72544 8006 ft 271 kts 54°
2026-04-14 14:11 41.01693 9.74667 8710 ft 278 kts 53°
2026-04-14 14:11 41.02759 9.76889 9458 ft 283 kts 53°
2026-04-14 14:11 41.03827 9.79111 10152 ft 289 kts 53°
2026-04-14 14:11 41.04968 9.81474 10325 ft 314 kts 53°
2026-04-14 14:12 41.06192 9.84007 10633 ft 333 kts 54°
2026-04-14 14:12 41.07445 9.86622 11230 ft 341 kts 54°
2026-04-14 14:12 41.08733 9.89313 11889 ft 346 kts 54°
2026-04-14 14:12 41.10052 9.92072 12590 ft 351 kts 54°
2026-04-14 14:13 41.11369 9.94828 13291 ft 354 kts 54°
2026-04-14 14:13 41.12688 9.97593 13969 ft 358 kts 55°
2026-04-14 14:13 41.14024 10.00397 14631 ft 361 kts 54°
2026-04-14 14:13 41.15375 10.03233 15286 ft 365 kts 54°
2026-04-14 14:14 41.16748 10.06119 15924 ft 368 kts 54°
2026-04-14 14:14 41.18131 10.09024 16545 ft 372 kts 54°
2026-04-14 14:14 41.19522 10.11949 17157 ft 375 kts 54°
2026-04-14 14:14 41.20947 10.14886 17744 ft 377 kts 51°
2026-04-14 14:15 41.22561 10.17651 18330 ft 379 kts 46°
2026-04-14 14:15 41.24254 10.20334 18900 ft 381 kts 46°
2026-04-14 14:15 41.25989 10.23054 19459 ft 385 kts 46°
2026-04-14 14:15 41.27729 10.25785 19999 ft 388 kts 45°
2026-04-14 14:16 41.29498 10.28566 20541 ft 391 kts 45°
2026-04-14 14:16 41.31258 10.31335 21053 ft 394 kts 45°
2026-04-14 14:16 41.33045 10.34150 21567 ft 397 kts 45°
2026-04-14 14:17 41.36652 10.39841 22544 ft 403 kts 45°
2026-04-14 14:17 41.38452 10.42687 23016 ft 405 kts 45°
2026-04-14 14:17 41.40285 10.45586 23470 ft 408 kts 45°
2026-04-14 14:17 41.42145 10.48531 23930 ft 411 kts 45°
2026-04-14 14:18 41.44006 10.51483 24367 ft 414 kts 45°
2026-04-14 14:18 41.45866 10.54434 24811 ft 416 kts 45°
2026-04-14 14:18 41.47734 10.57401 25223 ft 419 kts 45°
2026-04-14 14:18 41.49619 10.60398 25644 ft 421 kts 45°
2026-04-14 14:19 41.51534 10.63445 26050 ft 423 kts 45°
2026-04-14 14:19 41.53456 10.66508 26425 ft 426 kts 45°
2026-04-14 14:19 41.55350 10.69529 26802 ft 429 kts 45°
2026-04-14 14:19 41.57274 10.72601 27167 ft 431 kts 45°
2026-04-14 14:20 41.59227 10.75720 27516 ft 434 kts 45°
2026-04-14 14:20 41.61161 10.78815 27866 ft 436 kts 45°
2026-04-14 14:20 41.63107 10.81931 28219 ft 438 kts 45°
2026-04-14 14:20 41.65073 10.85089 28605 ft 439 kts 45°
2026-04-14 14:21 41.67040 10.88252 28988 ft 440 kts 45°
2026-04-14 14:21 41.68987 10.91386 29451 ft 438 kts 44°
2026-04-14 14:21 41.70952 10.94553 29960 ft 435 kts 44°
2026-04-14 14:21 41.72884 10.97670 30452 ft 432 kts 44°
2026-04-14 14:22 41.74781 11.00732 30947 ft 429 kts 43°
2026-04-14 14:22 41.76685 11.03799 31440 ft 424 kts 41°
2026-04-14 14:22 41.78761 11.06586 31861 ft 415 kts 34°
2026-04-14 14:22 41.81006 11.08892 32263 ft 406 kts 26°
2026-04-14 14:23 41.83499 11.10616 32622 ft 396 kts 15°
2026-04-14 14:23 41.86109 11.11761 33033 ft 390 kts 10°
2026-04-14 14:23 41.88723 11.12715 33349 ft 389 kts
2026-04-14 14:23 41.91322 11.13632 33714 ft 387 kts
2026-04-14 14:24 41.93933 11.14550 33928 ft 388 kts
2026-04-14 14:24 41.96576 11.15480 33907 ft 388 kts
2026-04-14 14:24 42.01772 11.17320 33912 ft 382 kts
2026-04-14 14:25 42.06896 11.19136 33912 ft 382 kts
2026-04-14 14:25 42.12058 11.20969 33912 ft 384 kts
2026-04-14 14:26 42.17218 11.22809 33912 ft 384 kts
2026-04-14 14:26 42.22408 11.24661 33911 ft 383 kts
2026-04-14 14:27 42.27576 11.26510 33912 ft 383 kts
2026-04-14 14:27 42.32751 11.28361 33912 ft 383 kts
2026-04-14 14:28 42.37888 11.30205 33912 ft 384 kts
2026-04-14 14:28 42.43042 11.32058 33912 ft 383 kts
2026-04-14 14:29 42.48230 11.33927 33911 ft 383 kts
2026-04-14 14:29 42.53384 11.35785 33912 ft 384 kts
2026-04-14 14:30 42.58539 11.37648 33912 ft 383 kts
2026-04-14 14:30 42.63732 11.39527 33912 ft 383 kts
2026-04-14 14:31 42.68874 11.41392 33912 ft 383 kts
2026-04-14 14:31 42.74088 11.43284 33912 ft 384 kts
2026-04-14 14:32 42.79303 11.45182 33911 ft 384 kts
2026-04-14 14:32 42.84401 11.47040 33911 ft 383 kts
2026-04-14 14:33 42.89557 11.48922 33912 ft 383 kts
2026-04-14 14:33 42.94685 11.50805 33912 ft 383 kts
2026-04-14 14:34 43.02441 11.53652 33912 ft 383 kts
2026-04-14 14:35 43.07563 11.55533 33911 ft 383 kts
2026-04-14 14:35 43.12688 11.57412 33912 ft 384 kts
2026-04-14 14:36 43.17860 11.59314 33912 ft 384 kts
2026-04-14 14:36 43.22989 11.61201 33914 ft 383 kts
2026-04-14 14:37 43.28138 11.63016 33923 ft 382 kts
2026-04-14 14:37 43.33263 11.64817 33932 ft 382 kts
2026-04-14 14:38 43.38391 11.66636 33939 ft 382 kts
2026-04-14 14:38 43.43550 11.68467 33939 ft 383 kts
2026-04-14 14:39 43.48663 11.70285 33938 ft 383 kts
2026-04-14 14:39 43.53834 11.72122 33938 ft 382 kts
2026-04-14 14:40 43.58972 11.73953 33939 ft 383 kts
2026-04-14 14:40 43.64095 11.75782 33939 ft 383 kts
2026-04-14 14:41 43.69240 11.77620 33940 ft 383 kts
2026-04-14 14:41 43.74407 11.79470 33950 ft 382 kts
2026-04-14 14:42 43.79550 11.81314 33959 ft 383 kts
2026-04-14 14:42 43.84710 11.83167 33965 ft 383 kts
2026-04-14 14:43 43.89876 11.85027 33966 ft 383 kts
2026-04-14 14:43 43.95052 11.86893 33966 ft 382 kts
2026-04-14 14:44 44.00168 11.88742 33966 ft 382 kts
2026-04-14 14:44 44.05340 11.90613 33966 ft 383 kts
2026-04-14 14:45 44.10494 11.92480 33967 ft 383 kts
2026-04-14 14:45 44.15642 11.94351 33965 ft 383 kts
2026-04-14 14:46 44.20793 11.96225 33966 ft 383 kts
2026-04-14 14:46 44.25951 11.98104 33966 ft 383 kts
2026-04-14 14:47 44.31110 11.99988 33966 ft 383 kts
2026-04-14 14:47 44.36272 12.01877 33967 ft 383 kts
2026-04-14 14:48 44.41403 12.03756 33968 ft 382 kts
2026-04-14 14:48 44.43954 12.04694 33716 ft 378 kts
2026-04-14 14:48 44.46507 12.05633 33142 ft 376 kts
2026-04-14 14:48 44.49010 12.06555 32749 ft 370 kts
2026-04-14 14:49 44.51499 12.07473 32309 ft 366 kts
2026-04-14 14:49 44.53987 12.08386 31876 ft 370 kts
2026-04-14 14:49 44.56474 12.09298 31428 ft 373 kts
2026-04-14 14:49 44.58989 12.10228 30976 ft 368 kts
2026-04-14 14:50 44.61401 12.11121 30543 ft 364 kts
2026-04-14 14:50 44.63828 12.12018 30109 ft 360 kts
2026-04-14 14:50 44.66237 12.12909 29681 ft 356 kts
2026-04-14 14:50 44.68651 12.13800 29258 ft 361 kts
2026-04-14 14:51 44.71075 12.14693 28821 ft 362 kts
2026-04-14 14:51 44.73528 12.15605 28372 ft 358 kts
2026-04-14 14:51 44.75940 12.16503 27938 ft 354 kts
2026-04-14 14:51 44.78308 12.17385 27512 ft 351 kts
2026-04-14 14:52 44.80679 12.18267 27083 ft 347 kts
2026-04-14 14:52 44.83006 12.19130 26674 ft 351 kts
2026-04-14 14:52 44.85384 12.20011 26250 ft 352 kts
2026-04-14 14:52 44.87736 12.20890 25810 ft 349 kts
2026-04-14 14:53 44.90052 12.21756 25397 ft 345 kts
2026-04-14 14:53 44.92376 12.22624 24979 ft 342 kts
2026-04-14 14:53 44.94670 12.23481 24564 ft 338 kts
2026-04-14 14:53 44.96956 12.24336 24155 ft 342 kts
2026-04-14 14:54 44.99301 12.25212 23729 ft 345 kts
2026-04-14 14:54 45.01617 12.26083 23294 ft 343 kts
2026-04-14 14:54 45.03869 12.27151 22866 ft 345 kts 17°
2026-04-14 14:54 45.05991 12.28730 22436 ft 352 kts 28°
2026-04-14 14:55 45.07928 12.31057 22000 ft 367 kts 41°
2026-04-14 14:55 45.09524 12.33925 21514 ft 372 kts 52°
2026-04-14 14:55 45.11037 12.36896 21052 ft 366 kts 41°
2026-04-14 14:55 45.12955 12.39122 20588 ft 357 kts 27°
2026-04-14 14:56 45.17157 12.42857 19723 ft 353 kts 28°
2026-04-14 14:56 45.19203 12.44792 19313 ft 351 kts 30°
2026-04-14 14:56 45.21197 12.46743 18893 ft 349 kts 31°
2026-04-14 14:57 45.23195 12.48731 18477 ft 347 kts 31°
2026-04-14 14:57 45.25169 12.50723 18063 ft 345 kts 32°
2026-04-14 14:57 45.27118 12.52712 17653 ft 343 kts 32°
2026-04-14 14:57 45.29052 12.54699 17247 ft 340 kts 32°
2026-04-14 14:58 45.30961 12.56670 16847 ft 338 kts 33°
2026-04-14 14:58 45.32867 12.58642 16447 ft 336 kts 33°
2026-04-14 14:58 45.34761 12.60607 16049 ft 334 kts 33°
2026-04-14 14:58 45.36650 12.62568 15652 ft 331 kts 33°
2026-04-14 14:59 45.38506 12.64499 15262 ft 329 kts 33°
2026-04-14 14:59 45.40334 12.66400 14871 ft 327 kts 34°
2026-04-14 14:59 45.42186 12.68329 14481 ft 324 kts 34°
2026-04-14 14:59 45.44002 12.70222 14096 ft 322 kts 35°
2026-04-14 15:00 45.45811 12.72110 13712 ft 320 kts 35°
2026-04-14 15:00 45.47617 12.73996 13330 ft 317 kts 35°
2026-04-14 15:00 45.49392 12.75851 12954 ft 315 kts 35°
2026-04-14 15:00 45.51150 12.77690 12579 ft 313 kts 36°
2026-04-14 15:01 45.52917 12.79541 12207 ft 310 kts 36°
2026-04-14 15:01 45.54624 12.81330 11938 ft 300 kts 36°
2026-04-14 15:01 45.56290 12.83080 11604 ft 291 kts 36°
2026-04-14 15:01 45.57902 12.84775 11396 ft 285 kts 36°
2026-04-14 15:02 45.59492 12.86445 11042 ft 285 kts 36°
2026-04-14 15:02 45.61083 12.88117 10733 ft 283 kts 36°
2026-04-14 15:02 45.62663 12.89779 10412 ft 281 kts 36°
2026-04-14 15:02 45.64241 12.91439 10092 ft 280 kts 36°
2026-04-14 15:03 45.65795 12.93076 9773 ft 278 kts 35°
2026-04-14 15:03 45.67360 12.94754 9450 ft 276 kts 37°
2026-04-14 15:03 45.68873 12.96448 9134 ft 275 kts 37°
2026-04-14 15:03 45.70371 12.98136 8822 ft 273 kts 37°
2026-04-14 15:04 45.71865 12.99818 8509 ft 272 kts 37°
2026-04-14 15:04 45.73362 13.01501 8195 ft 270 kts 37°
2026-04-14 15:04 45.74843 13.03167 7880 ft 268 kts 37°
2026-04-14 15:04 45.76342 13.04855 7561 ft 267 kts 37°
2026-04-14 15:05 45.77800 13.06497 7251 ft 265 kts 37°
2026-04-14 15:05 45.79252 13.08132 6917 ft 265 kts 37°
2026-04-14 15:05 45.80716 13.09782 6350 ft 269 kts 37°
2026-04-14 15:05 45.82102 13.11672 5708 ft 269 kts 53°
2026-04-14 15:06 45.82878 13.14067 5087 ft 265 kts 76°
2026-04-14 15:06 45.83044 13.16678 4490 ft 261 kts 91°
2026-04-14 15:06 45.82895 13.19289 3884 ft 257 kts 91°
2026-04-14 15:06 45.82876 13.21802 3340 ft 248 kts 89°
2026-04-14 15:07 45.82872 13.24249 2934 ft 235 kts 89°
2026-04-14 15:07 45.82865 13.26479 2602 ft 210 kts 89°
2026-04-14 15:07 45.82859 13.28442 2335 ft 184 kts 89°
2026-04-14 15:07 45.82853 13.30163 2092 ft 161 kts 89°
2026-04-14 15:08 45.82848 13.31717 1888 ft 148 kts 89°
2026-04-14 15:08 45.82843 13.33218 1680 ft 150 kts 89°
2026-04-14 15:08 45.82837 13.34733 1466 ft 149 kts 89°
2026-04-14 15:08 45.82831 13.36223 1261 ft 148 kts 89°
2026-04-14 15:09 45.82825 13.37706 1060 ft 148 kts 89°
2026-04-14 15:09 45.82821 13.39185 853 ft 147 kts 89°
2026-04-14 15:09 45.82820 13.40657 645 ft 144 kts 90°
2026-04-14 15:09 45.82809 13.42095 445 ft 143 kts 89°
2026-04-14 15:10 45.82806 13.43540 264 ft 144 kts 90°
2026-04-14 15:10 45.82796 13.44967 56 ft 139 kts 90°
2026-04-14 15:10 45.82789 13.46155 32 ft 92 kts 89°
2026-04-14 15:10 45.82789 13.46842 35 ft 53 kts 91°
2026-04-14 15:11 45.82784 13.47336 35 ft 42 kts 90°
2026-04-14 15:11 45.82768 13.47603 36 ft 22 kts 111°
2026-04-14 15:11 45.82673 13.47751 35 ft 18 kts 140°
2026-04-14 15:11 45.82589 13.47854 35 ft 13 kts 139°
2026-04-14 15:12 45.82511 13.47952 35 ft 16 kts 139°
2026-04-14 15:12 45.82414 13.48069 34 ft 20 kts 139°
2026-04-14 15:12 45.82310 13.48196 32 ft 17 kts 140°
2026-04-14 15:12 45.82261 13.48308 32 ft 5 kts 83°
2026-04-14 15:13 45.82264 13.48351 32 ft 3 kts 82°
2026-04-14 15:13 45.82267 13.48378 32 ft 2 kts 79°
2026-04-14 15:13 45.82276 13.48401 32 ft 2 kts 32°
2026-04-14 15:13 45.82293 13.48399 32 ft 3 kts 348°
2026-04-14 15:14 45.82312 13.48394 32 ft 1 kts 349°